Location: Gwatt
(46.7204°N, 7.6223°E)
Time: 01:08:04
(UTC+00:00)

Transit 2A - Pass Details

Date: 24 January 2021
Orbit: 601 x 958 km, 66.7° (Epoch: 07 March)

Event Time Altitude Azimuth Distance (km) Brightness Sun altitude
Rises 04:07:48 0° 227° (SW) 3,486 - -29.8°
Reaches altitude 10° 04:10:27 10° 233° (SW) 2,502 - -29.3°
Maximum altitude 04:16:05 52° 309° (NW) 999 - -28.4°
Exits shadow 04:18:02 35° 4° (N) 1,256 7.1 -28.0°
Drops below altitude 10° 04:21:12 10° 26° (NNE) 2,278 8.7 -27.5°
Sets 04:23:32 0° 31° (NNE) 3,148 9.6 -27.1°
